DateTimeUTC,F1_A11,F1_S11,BsB_S11,BsG_S11,BsR_S11,BbsB_S11,BbsG_S11,BbsR_S11,BaB_A11,BaG_A11,BaR_A11,Tu_S11,T_S11,Uu_S11,U_S11,P_S11,T1_A11
2021-08-01T19:00:00Z,00000200,20000000,,,,,,,-000.26,-000.32,0000.23,20.7,27.1,09.1,06.2,0676.6,31.2
2021-08-01T19:01:00Z,00000200,20000000,,,,,,,0000.12,-000.27,-000.08,20.7,27.1,09.0,06.1,0676.6,31.2
2021-08-01T19:02:00Z,00000200,20000000,,,,,,,-000.38,0000.29,-000.09,20.7,27.1,09.0,06.1,0676.6,31.2
2021-08-01T19:03:00Z,00000200,60000000,,,,,,,0000.88,0000.62,0000.45,20.7,27.1,09.0,06.1,0676.6,31.2
2021-08-01T19:04:00Z,00000200,40000000,0005.08,0003.22,0002.12,-000.38,0000.53,0000.25,0001.11,0001.17,0000.76,20.8,27.0,08.9,06.2,0677.6,31.2
2021-08-01T19:05:00Z,00000200,00000000,0004.48,0003.55,0002.35,0000.61,0000.88,0000.38,0001.06,0000.31,0000.56,20.9,26.9,08.9,06.2,0677.7,31.2
2021-08-01T19:06:00Z,00000200,00000000,0004.34,0003.61,0002.11,0000.28,0000.71,0000.11,0000.96,0001.46,0000.67,20.9,27.0,08.9,06.2,0677.6,31.2
2021-08-01T19:07:00Z,00000200,00000000,0004.48,0003.41,0002.24,0000.39,0000.69,0000.70,0000.97,0001.01,0000.95,20.9,27.0,08.9,06.2,0677.6,31.3
2021-08-01T19:08:00Z,00000200,00000000,0004.91,0003.45,0002.26,0000.62,0000.62,0000.25,0001.14,0000.67,0000.21,20.9,26.9,08.9,06.2,0677.6,31.3
2021-08-01T19:09:00Z,00000200,00000000,0004.94,0003.82,0001.96,0000.19,0000.65,0000.20,0001.00,0001.23,0001.10,20.9,27.0,08.9,06.1,0677.6,31.3
2021-08-01T19:10:00Z,00000200,00000000,0004.64,0004.18,0002.09,0000.58,0000.70,0000.34,0001.59,0001.24,0001.02,20.9,27.0,08.8,06.1,0677.6,31.3
2021-08-01T19:11:00Z,00000200,00000000,0004.72,0003.52,0002.17,0000.02,0000.59,0000.51,0000.95,0000.61,0000.44,20.9,26.9,08.8,06.1,0677.6,31.3
2021-08-01T19:12:00Z,00000200,00000000,0004.75,0003.55,0001.70,0000.47,0000.63,0000.01,0000.87,0001.24,0000.75,20.9,26.9,08.8,06.1,0677.6,31.3
2021-08-01T19:13:00Z,00000200,00000000,0003.78,0002.89,0001.92,0000.49,0000.47,0000.21,0001.23,0000.85,0000.81,20.9,26.9,08.7,06.0,0677.6,31.3
2021-08-01T19:14:00Z,00000200,00000000,0003.56,0002.57,0001.42,0000.28,0000.52,-000.24,0001.06,0001.10,0000.87,20.9,26.9,08.7,06.0,0677.6,31.3
2021-08-01T19:15:00Z,00000200,00000000,0003.02,0002.66,0001.29,0000.66,0000.55,-000.63,0000.89,0000.81,0000.77,20.9,26.9,08.8,06.1,0677.6,31.3
2021-08-01T19:16:00Z,00000200,00000000,0003.15,0002.36,0001.94,0000.69,0000.35,0000.26,0000.74,0000.66,0000.30,20.9,26.9,08.7,06.1,0677.6,31.3
2021-08-01T19:17:00Z,00000200,00000000,0004.01,0002.56,0001.58,0000.09,0000.39,0000.27,0000.61,0000.76,0000.96,20.9,26.9,08.7,06.1,0677.6,31.3
2021-08-01T19:18:00Z,00000200,00000000,0004.16,0003.06,0001.32,0000.35,0000.27,0000.29,0000.98,0000.78,0000.43,20.9,26.9,08.8,06.1,0677.6,31.3
2021-08-01T19:19:00Z,00000200,00000000,0003.69,0002.78,0001.52,0000.73,0000.37,0000.34,0001.16,0000.64,0000.31,20.9,26.9,08.8,06.1,0677.6,31.3
2021-08-01T19:20:00Z,00000200,00000000,0003.79,0002.95,0002.09,0000.47,0000.60,0000.16,0000.96,0000.94,0000.90,20.9,26.9,08.8,06.1,0677.6,31.3
2021-08-01T19:21:00Z,00000200,00000000,0004.30,0003.23,0002.06,0000.09,0000.76,0000.21,0001.06,0001.07,0000.81,20.9,26.9,08.8,06.1,0677.6,31.3
2021-08-01T19:22:00Z,00000200,00000000,0005.24,0003.72,0002.11,0000.39,0000.63,0000.66,0000.99,0000.77,0000.72,20.9,26.9,08.8,06.1,0677.6,31.3
2021-08-01T19:23:00Z,00000200,00000000,0005.93,0003.86,0002.08,0000.67,0000.42,0000.38,0000.92,0001.38,0000.75,20.9,26.9,08.9,06.2,0677.6,31.3
2021-08-01T19:24:00Z,00000200,00000000,0005.75,0003.94,0002.07,0000.25,0000.41,0000.14,0001.54,0001.32,0000.95,20.9,27.0,08.9,06.2,0677.6,31.3
2021-08-01T19:25:00Z,00000200,00000000,0005.14,0003.85,0002.15,0000.10,0000.65,0000.27,0001.07,0000.84,0000.80,20.9,27.0,08.9,06.2,0677.6,31.3
2021-08-01T19:26:00Z,00000200,00000000,0004.61,0003.79,0002.44,0000.56,0000.44,0000.46,0001.57,0001.47,0000.94,20.9,26.9,08.8,06.1,0677.6,31.3
2021-08-01T19:27:00Z,00000200,00000000,0005.82,0004.04,0002.96,0000.20,0000.43,0000.49,0001.03,0001.06,0000.56,20.9,27.0,08.7,06.0,0677.6,31.3
2021-08-01T19:28:00Z,00000200,00000000,0004.93,0003.75,0001.98,0000.40,0000.44,0000.05,0001.08,0000.73,0000.92,20.9,27.0,08.7,06.0,0677.6,31.3
2021-08-01T19:29:00Z,00000200,00000000,0003.62,0003.32,0002.11,0000.55,0000.52,0000.15,0001.27,0000.70,0000.74,20.9,27.0,08.6,06.0,0677.5,31.3
2021-08-01T19:30:00Z,00000200,00000000,0003.38,0003.02,0001.57,0000.13,0000.40,0000.04,0000.77,0000.69,0000.52,20.9,27.0,08.5,05.9,0677.5,31.3
2021-08-01T19:31:00Z,00000200,00000000,0003.37,0002.51,0001.33,0000.08,0000.42,-000.14,0000.71,0001.11,0000.75,20.9,27.0,08.5,05.9,0677.5,31.3
2021-08-01T19:32:00Z,00000200,00000000,0003.28,0002.41,0001.36,-000.21,0000.47,-000.17,0001.08,0000.97,0000.53,20.9,26.9,08.6,05.9,0677.5,31.3
2021-08-01T19:33:00Z,00000200,00000000,0003.40,0002.59,0001.84,0000.45,0000.23,-000.16,0000.96,0000.33,0000.56,20.9,27.0,08.6,06.0,0677.5,31.3
2021-08-01T19:34:00Z,00000200,00000000,0003.06,0002.64,0001.33,0000.18,0000.73,-000.01,0000.34,0000.70,0000.56,20.9,27.0,08.5,05.9,0677.5,31.3
2021-08-01T19:35:00Z,00000200,00000000,0004.10,0002.23,0001.08,0000.60,0000.58,0000.15,0000.91,0000.97,0000.47,20.9,27.0,08.5,05.9,0677.5,31.3
2021-08-01T19:36:00Z,00000200,00000000,0002.94,0002.35,0001.21,0000.61,0000.52,0000.11,0000.81,0000.72,0000.58,20.9,26.9,08.5,05.9,0677.5,31.3
2021-08-01T19:37:00Z,00000200,00000000,0003.35,0002.39,0001.22,-000.03,0000.30,-000.22,0000.87,0000.70,0000.79,20.9,26.9,08.5,05.9,0677.5,31.3
2021-08-01T19:38:00Z,00000200,00000000,0003.47,0002.53,0001.40,0000.04,0000.55,-000.15,0000.86,0000.90,0000.56,20.9,26.9,08.5,05.9,0677.4,31.3
2021-08-01T19:39:00Z,00000200,00000000,0003.90,0002.93,0001.48,0000.40,0000.51,0000.00,0000.99,0000.73,0000.56,20.9,26.9,08.6,05.9,0677.4,31.3
2021-08-01T19:40:00Z,00000200,00000000,0004.26,0003.32,0002.06,0000.57,0000.30,0000.24,0001.35,0000.75,0000.89,20.8,26.9,08.6,06.0,0677.4,31.3
2021-08-01T19:41:00Z,00000200,00000000,0004.56,0003.46,0002.08,0000.44,0000.74,-000.18,0001.02,0001.53,0000.67,20.9,26.9,08.6,06.0,0677.4,31.3
2021-08-01T19:42:00Z,00000200,00000000,0004.42,0002.91,0002.18,0000.69,0000.42,0000.20,0000.97,0000.66,0000.65,20.9,26.9,08.5,05.9,0677.4,31.3
2021-08-01T19:43:00Z,00000200,00000000,0004.15,0002.99,0001.47,0000.28,0000.56,0000.18,0000.67,0000.98,0000.66,20.9,26.9,08.4,05.9,0677.4,31.3
2021-08-01T19:44:00Z,00000200,00000000,0004.55,0002.63,0001.95,-000.20,0000.39,0000.15,0000.83,0000.72,0000.52,20.9,26.9,08.3,05.8,0677.4,31.3
2021-08-01T19:45:00Z,00000200,00000000,0003.39,0002.79,0001.80,0000.64,0000.48,0000.08,0000.81,0000.92,0000.60,20.9,26.9,08.3,05.7,0677.4,31.3
2021-08-01T19:46:00Z,00000200,00000000,0003.93,0002.51,0001.46,0000.65,0000.29,0000.02,0001.26,0000.88,0000.45,20.9,26.9,08.2,05.7,0677.4,31.3
2021-08-01T19:47:00Z,00000200,00000000,0003.72,0002.37,0001.55,0000.15,0000.59,0000.23,0000.71,0000.46,0000.63,20.9,26.9,08.4,05.8,0677.4,31.3
2021-08-01T19:48:00Z,00000200,00000000,0004.77,0002.23,0001.45,-000.07,0000.45,0000.38,0000.68,0000.69,0000.37,20.9,26.9,08.3,05.7,0677.4,31.3
2021-08-01T19:49:00Z,00000200,00000000,0003.39,0003.05,0001.51,-000.14,0000.62,-000.06,0000.64,0000.84,0000.83,20.9,26.9,08.4,05.8,0677.4,31.3
2021-08-01T19:50:00Z,00000200,00000000,0003.86,0003.08,0001.66,0000.52,0000.46,0000.08,0001.41,0000.98,0000.84,20.8,27.0,08.3,05.8,0677.4,31.3
2021-08-01T19:51:00Z,00000200,00000000,0005.04,0003.14,0001.78,0001.02,0000.42,0000.28,0001.11,0000.89,0000.59,20.9,26.9,08.3,05.7,0677.4,31.3
2021-08-01T19:52:00Z,00000200,00000000,0004.12,0003.30,0001.82,0000.07,0000.51,0000.29,0000.93,0000.92,0000.80,20.8,26.9,08.3,05.7,0677.4,31.3
2021-08-01T19:53:00Z,00000200,00000000,0005.34,0003.21,0002.06,0000.62,0000.42,0000.18,0001.04,0001.07,0000.53,20.8,26.9,08.3,05.8,0677.4,31.3
2021-08-01T19:54:00Z,00000200,00000000,0003.79,0003.18,0001.79,0000.21,0000.49,0000.32,0000.82,0001.01,0000.86,20.8,26.9,08.2,05.7,0677.4,31.3
2021-08-01T19:55:00Z,00000200,00000000,0003.88,0003.17,0001.94,0001.17,0000.58,0000.43,0001.17,0000.93,0000.62,20.8,26.9,08.2,05.7,0677.4,31.3
2021-08-01T19:56:00Z,00000200,00000000,0003.56,0003.48,0002.29,-000.34,0000.42,0000.20,0001.31,0001.10,0000.57,20.8,26.9,08.2,05.7,0677.3,31.3
2021-08-01T19:57:00Z,00000200,40000000,,,,,,,0000.22,0000.06,0000.68,20.9,27.0,08.5,05.9,0677.3,31.3
2021-08-01T19:58:00Z,00000200,60000000,,,,,,,0000.00,-000.13,-000.23,20.6,27.1,08.2,05.6,0676.3,31.3
2021-08-01T19:59:00Z,00000200,20000000,,,,,,,-000.18,0000.29,0000.17,20.6,27.2,08.2,05.5,0676.3,31.3
